Weather reports worldwide

Advertisment
Grünow, Germany (10289): temperature & dewpoint: 10.08.2018 18:00:00 - 16.08.2018 18:00:00 (CEST)Grünow, Germany (10289): temperature 5cm & temperature -5cm: 10.08.2018 18:00:00 - 16.08.2018 18:00:00 (CEST)Grünow, Germany (10289): temperature -20cm & temperature -100cm: 10.08.2018 18:00:00 - 16.08.2018 18:00:00 (CEST)Grünow, Germany (10289): wind speed & gusts: 10.08.2018 18:00:00 - 16.08.2018 18:00:00 (CEST)Grünow, Germany (10289): wind direction: 10.08.2018 18:00:00 - 16.08.2018 18:00:00 (CEST)Grünow, Germany (10289): reduced air pressure: 10.08.2018 18:00:00 - 16.08.2018 18:00:00 (CEST)Grünow, Germany (10289): visibility: 10.08.2018 18:00:00 - 16.08.2018 18:00:00 (CEST)Grünow, Germany (10289): sunshine duration: 10.08.2018 18:00:00 - 16.08.2018 18:00:00 (CEST)Grünow, Germany (10289): precipitation: 10.08.2018 18:00:00 - 16.08.2018 18:00:00 (CEST)
Date & Time tt [°C] td [°C] tt 5cm [°C] tt -5cm [°C] tt -20cm [°C] tt -100cm [°C] ff [km/h] ff [kn] fx [km/h] fx [kn] dd ppp [hPa] vv [km] sd [min] rr [mm]
16.08.2018 18:00:00 - - - - - - - - - - - - - - -
16.08.2018 17:00:00 - - - - - - - - - - - - - - -
16.08.2018 16:00:00 - - - - - - - - - - - - - - -
16.08.2018 15:00:00 - - - - - - - - - - - - - - -
16.08.2018 14:00:00 - - - - - - - - - - - - - - -
16.08.2018 13:00:00 - - - - - - - - - - - - - - -
16.08.2018 12:00:00 - - - - - - - - - - - - - - -
16.08.2018 11:00:00 - - - - - - - - - - - - - - -
16.08.2018 10:00:00 - - - - - - - - - - - - - - -
16.08.2018 09:00:00 20,7 14,2 22,5 20,0 20,2 20,0 11 6 19 10 SSW 1019,1 31 60 0,0
16.08.2018 08:00:00 18,4 14,3 19,4 18,3 20,3 20,0 8 4 12 7 SSW 1019,3 25 51 0,0
16.08.2018 07:00:00 16,4 14,1 15,7 17,9 20,4 20,0 9 5 12 7 SSE 1019,3 21 6 0,0
16.08.2018 06:00:00 16,8 14,3 15,7 18,3 20,6 20,0 8 4 12 6 S 1019,3 30 0 0,0
16.08.2018 05:00:00 17,3 14,2 16,8 18,5 20,7 20,0 9 5 13 7 S 1019,2 37 0 0,0
16.08.2018 04:00:00 16,9 14,4 16,5 18,4 20,9 20,0 9 5 11 6 S 1019,2 38 0 0,0
16.08.2018 03:00:00 17,0 14,2 16,3 18,4 21,1 20,0 8 4 13 7 S 1019,3 34 0 0,0
16.08.2018 02:00:00 15,8 13,6 14,3 18,5 21,3 20,0 7 4 11 6 S 1019,4 32 0 0,0
16.08.2018 01:00:00 16,2 13,8 15,1 18,9 21,6 20,0 9 5 11 6 S 1019,1 36 0 0,0
16.08.2018 00:00:00 16,8 13,9 15,0 19,6 21,9 20,0 8 4 10 6 S 1019,1 38 0 0,0
15.08.2018 23:00:00 17,8 14,4 17,1 20,3 22,1 20,1 9 5 10 5 SSE 1018,9 54 0 0,0
15.08.2018 22:00:00 18,7 14,1 16,4 21,2 22,3 20,1 5 3 9 5 SW 1018,9 59 0 0,0
15.08.2018 21:00:00 20,2 14,1 17,9 22,4 22,5 20,1 8 4 20 11 WSW 1018,7 70 4 0,0
15.08.2018 20:00:00 21,5 13,9 21,5 23,8 22,6 20,1 13 7 26 14 WSW 1018,1 68 0 0,0
15.08.2018 19:00:00 22,2 13,2 22,6 25,3 22,5 20,1 14 8 29 16 WSW 1017,8 70 12 0,0
15.08.2018 18:00:00 23,0 13,2 24,3 27,1 22,3 20,1 18 10 29 16 W 1017,7 70 57 0,0
15.08.2018 17:00:00 24,0 12,8 27,9 26,6 22,1 20,1 18 10 29 16 WSW 1017,7 70 36 0,0
15.08.2018 16:00:00 22,4 13,3 24,8 25,2 21,9 20,1 16 9 29 15 W 1017,7 70 0 0,0
15.08.2018 15:00:00 22,3 13,4 25,5 26,1 21,6 20,1 19 10 31 17 WSW 1017,6 70 15 0,0
15.08.2018 14:00:00 22,7 12,5 27,3 26,4 21,2 20,1 22 12 36 20 WSW 1017,4 61 32 0,0
15.08.2018 13:00:00 21,8 12,0 26,1 24,7 20,9 20,1 18 10 31 17 WNW 1017,4 70 36 0,0
15.08.2018 12:00:00 21,3 13,7 25,8 22,4 20,7 20,1 19 11 32 17 W 1017,4 70 30 0,0
15.08.2018 11:00:00 19,7 14,3 21,2 21,2 20,6 20,1 21 11 32 17 WNW 1017,2 70 33 0,0
15.08.2018 10:00:00 18,5 14,8 19,3 19,4 20,7 20,1 21 11 32 17 WNW 1016,4 70 0 0,0
15.08.2018 09:00:00 17,7 15,0 17,8 18,9 20,8 20,1 23 12 31 17 W 1015,9 69 0 0,0
15.08.2018 08:00:00 17,8 16,0 17,8 18,8 20,9 20,1 16 9 23 12 W 1015,2 61 0 0,0
15.08.2018 07:00:00 17,7 15,8 17,5 18,7 21,0 20,1 14 8 29 16 W 1014,7 69 0 0,0
15.08.2018 06:00:00 17,5 16,4 17,3 18,7 21,2 20,1 15 8 21 11 W 1014,1 35 0 0,0
15.08.2018 05:00:00 17,3 16,2 16,4 18,7 21,4 20,1 13 7 23 12 WSW 1013,7 35 0 0,0
15.08.2018 04:00:00 17,6 16,2 17,0 19,2 21,6 20,1 16 9 29 15 W 1013,5 19 0 0,0
15.08.2018 03:00:00 17,9 16,6 17,6 19,4 21,8 20,1 18 10 24 13 W 1013,1 23 0 0,0
15.08.2018 02:00:00 18,0 16,8 17,6 19,7 22,0 20,1 19 11 25 14 W 1013,0 23 0 0,0
15.08.2018 01:00:00 18,1 16,4 17,6 20,1 22,3 20,1 16 9 24 13 W 1012,8 29 0 0,0
15.08.2018 00:00:00 18,5 17,1 18,1 20,6 22,5 20,1 16 9 21 12 W 1012,2 33 0 0,0
14.08.2018 23:00:00 18,4 17,5 18,2 21,0 22,8 20,1 8 5 26 14 W 1011,7 27 0 0,0
14.08.2018 22:00:00 18,5 17,3 18,0 21,7 23,1 20,1 14 8 21 11 WSW 1011,3 35 0 0,0
14.08.2018 21:00:00 19,0 16,9 18,1 23,3 23,2 20,1 13 7 46 25 WSW 1010,8 63 0 2,8
14.08.2018 20:00:00 22,2 14,0 21,9 24,9 23,3 20,2 19 10 32 18 SW 1009,9 70 17 0,0
14.08.2018 19:00:00 23,1 13,8 23,9 26,0 23,3 20,2 18 10 32 17 WSW 1009,5 69 17 0,0
14.08.2018 18:00:00 23,7 13,5 26,0 26,8 23,1 20,2 21 12 40 22 WSW 1009,4 39 28 0,0
14.08.2018 17:00:00 23,2 13,7 27,5 27,3 23,0 20,2 23 12 40 21 WSW 1009,5 44 41 0,0
14.08.2018 16:00:00 22,9 13,5 26,4 26,5 22,8 20,2 26 14 43 23 SW 1009,4 38 10 0,0
14.08.2018 15:00:00 24,0 12,7 27,1 27,6 22,5 20,2 24 13 39 21 SW 1009,0 45 26 0,0
14.08.2018 14:00:00 23,5 12,5 27,3 26,8 22,2 20,2 21 11 36 20 WSW 1009,0 70 32 0,0
14.08.2018 13:00:00 21,8 13,5 24,8 25,9 22,0 20,2 22 12 42 23 WSW 1009,1 52 21 0,0
14.08.2018 12:00:00 22,3 13,8 27,6 24,5 21,8 20,2 21 11 37 20 SW 1008,9 47 15 0,0
14.08.2018 11:00:00 21,2 14,2 24,7 23,4 21,6 20,2 17 9 31 17 SW 1008,6 49 16 0,0
14.08.2018 10:00:00 20,6 14,1 25,0 21,9 21,6 20,2 16 9 32 18 WSW 1008,4 55 15 0,0
14.08.2018 09:00:00 19,1 14,1 21,6 20,9 21,7 20,1 21 12 34 18 WSW 1008,2 41 36 0,0
14.08.2018 08:00:00 18,0 14,7 18,9 20,3 21,8 20,1 16 9 23 12 WSW 1007,9 34 9 0,0
14.08.2018 07:00:00 17,7 15,1 17,5 19,9 22,0 20,1 13 7 23 12 WSW 1007,5 35 0 0,0
14.08.2018 06:00:00 17,2 14,9 16,1 20,1 22,2 20,1 10 5 18 10 SW 1007,0 37 0 0,0
14.08.2018 05:00:00 18,2 15,0 17,2 20,5 22,4 20,1 11 6 18 10 SSW 1006,7 44 0 0,0
14.08.2018 04:00:00 18,1 14,7 16,9 20,7 22,6 20,1 9 5 14 8 S 1006,6 50 0 0,0
14.08.2018 03:00:00 18,6 14,4 17,3 21,2 22,9 20,2 10 5 17 9 S 1006,6 69 0 0,0
14.08.2018 02:00:00 18,6 13,5 16,8 21,8 23,1 20,2 10 5 12 7 S 1006,4 70 0 0,0
14.08.2018 01:00:00 20,1 13,3 18,9 22,5 23,3 20,2 7 4 17 9 SSW 1006,5 70 0 0,0
14.08.2018 00:00:00 21,5 12,7 20,7 23,1 23,5 20,2 10 5 14 7 SW 1006,6 70 0 0,0
13.08.2018 23:00:00 21,6 12,1 20,9 23,6 23,8 20,2 7 4 12 7 S 1006,5 70 0 0,0
13.08.2018 22:00:00 22,1 11,8 21,0 24,2 24,0 20,2 3 2 9 5 S 1006,3 70 0 0,0
13.08.2018 21:00:00 22,9 10,9 21,2 25,4 24,2 20,2 9 5 24 13 W 1006,3 70 0 0,0
13.08.2018 20:00:00 26,0 9,5 25,2 26,5 24,3 20,2 11 6 19 10 WSW 1006,1 70 0 0,0
13.08.2018 19:00:00 27,5 7,0 26,8 27,7 24,4 20,2 7 4 32 18 WSW 1005,8 70 0 0,0
13.08.2018 18:00:00 28,6 8,0 28,6 29,3 24,3 20,2 11 6 32 17 SW 1006,0 70 0 0,0
13.08.2018 17:00:00 29,6 6,5 31,0 31,5 23,9 20,2 16 8 26 14 SSE 1005,9 70 31 0,0
13.08.2018 16:00:00 30,6 6,6 35,8 32,1 23,5 20,3 15 8 35 19 SSW 1006,1 53 57 0,0
13.08.2018 15:00:00 29,3 5,8 32,2 32,5 22,9 20,3 13 7 30 16 SSW 1006,5 70 53 0,0
13.08.2018 14:00:00 29,4 6,2 34,7 31,5 22,3 20,3 13 7 31 17 SSE 1007,1 35 60 0,0
13.08.2018 13:00:00 28,9 5,0 34,8 30,0 21,6 20,3 14 8 31 17 SE 1007,6 38 60 0,0
13.08.2018 12:00:00 27,6 6,1 33,8 27,6 21,1 20,3 10 5 19 10 SE 1008,0 70 58 0,0
13.08.2018 11:00:00 26,7 7,1 31,2 25,3 20,7 20,3 12 7 18 10 SE 1008,4 63 60 0,0
13.08.2018 10:00:00 24,0 8,8 27,5 22,2 20,5 20,3 9 5 16 8 E 1008,9 70 60 0,0
13.08.2018 09:00:00 21,5 8,1 23,2 19,9 20,5 20,3 9 5 16 8 ESE 1009,3 60 60 0,0
13.08.2018 08:00:00 18,7 8,8 19,7 18,1 20,7 20,3 11 6 19 10 SE 1009,5 50 60 0,0
13.08.2018 07:00:00 15,8 9,1 13,9 17,8 20,9 20,3 7 4 13 7 E 1009,2 47 11 0,0
13.08.2018 06:00:00 14,8 8,5 12,7 18,1 21,1 20,3 3 2 9 5 E 1009,8 62 0 0,0
13.08.2018 05:00:00 16,1 7,9 14,1 18,5 21,3 20,3 8 4 11 6 E 1010,0 70 0 0,0
13.08.2018 04:00:00 16,5 7,6 14,3 18,8 21,6 20,3 7 4 11 6 ENE 1010,3 70 0 0,0
13.08.2018 03:00:00 16,2 8,0 13,6 19,2 21,8 20,4 8 4 9 5 NNE 1010,7 70 0 0,0
13.08.2018 02:00:00 16,3 7,6 12,1 19,8 22,1 20,4 4 2 9 5 NNW 1011,0 70 0 0,0
13.08.2018 01:00:00 18,5 7,3 16,5 20,6 22,3 20,4 8 4 13 7 SE 1011,6 70 0 0,0
13.08.2018 00:00:00 18,8 6,8 17,7 21,0 22,6 20,4 10 5 14 8 SE 1011,8 70 0 0,0
12.08.2018 23:00:00 18,8 8,1 17,8 21,7 22,9 20,4 8 5 10 5 SE 1012,0 70 0 0,0
12.08.2018 22:00:00 19,0 8,1 17,4 22,6 23,1 20,4 7 4 8 4 SE 1012,5 70 0 0,0
12.08.2018 21:00:00 21,4 6,7 18,6 23,9 23,3 20,4 3 1 7 4 SSW 1012,8 70 0 0,0
12.08.2018 20:00:00 22,6 5,9 21,0 25,7 23,4 20,5 8 5 22 12 W 1013,0 70 8 0,0
12.08.2018 19:00:00 24,3 4,7 24,8 27,4 23,3 20,5 16 9 27 15 WSW 1013,4 70 48 0,0
12.08.2018 18:00:00 24,6 4,8 27,1 28,8 23,1 20,5 20 11 32 17 WSW 1014,0 58 60 0,0
12.08.2018 17:00:00 24,5 5,2 28,7 29,7 22,7 20,5 21 12 36 19 WSW 1014,5 37 60 0,0
12.08.2018 16:00:00 24,8 5,7 29,8 29,9 22,3 20,5 17 9 36 20 SW 1015,2 28 60 0,0
12.08.2018 15:00:00 23,2 5,9 28,9 29,1 21,8 20,5 16 9 36 19 SW 1015,8 34 60 0,0
12.08.2018 14:00:00 22,7 6,7 27,2 28,7 21,3 20,6 23 13 39 21 WSW 1016,6 42 60 0,0
12.08.2018 13:00:00 22,4 6,7 28,5 27,4 20,7 20,6 24 13 39 21 SW 1017,1 34 57 0,0
12.08.2018 12:00:00 20,8 7,2 26,8 25,7 20,3 20,6 23 13 36 20 SW 1018,1 29 58 0,0
12.08.2018 11:00:00 19,8 9,2 25,1 23,2 19,9 20,6 22 12 35 19 SW 1018,4 28 59 0,0
12.08.2018 10:00:00 18,7 10,1 22,4 20,6 19,7 20,6 22 12 30 16 WSW 1018,7 36 60 0,0
12.08.2018 09:00:00 17,0 10,5 19,7 18,0 19,7 20,6 19 10 29 15 W 1019,0 41 60 0,0
12.08.2018 08:00:00 15,3 10,8 16,7 16,2 19,8 20,6 15 8 24 13 SW 1019,1 59 60 0,0
12.08.2018 07:00:00 12,6 10,3 11,5 15,5 20,1 20,6 7 4 16 9 SSW 1019,2 70 53 0,0
12.08.2018 06:00:00 11,0 9,4 9,8 15,6 20,3 20,6 7 4 18 10 SSW 1019,0 70 0 0,0
12.08.2018 05:00:00 12,2 9,6 10,6 15,9 20,6 20,7 14 8 21 11 SW 1019,0 70 0 0,0
12.08.2018 04:00:00 12,3 9,7 10,3 16,3 20,9 20,7 10 6 21 12 WSW 1019,0 70 0 0,0
12.08.2018 03:00:00 13,3 9,9 11,8 16,8 21,1 20,7 16 9 25 13 WSW 1019,2 70 0 0,0
12.08.2018 02:00:00 13,4 9,9 12,0 17,3 21,4 20,7 14 8 27 15 WSW 1019,2 70 0 0,0
12.08.2018 01:00:00 13,8 10,3 12,4 17,8 21,7 20,7 16 8 27 14 WSW 1019,4 70 0 0,0
12.08.2018 00:00:00 13,9 10,2 12,7 18,4 22,1 20,7 16 9 29 16 WSW 1019,4 70 0 0,0
11.08.2018 23:00:00 14,4 10,1 13,1 19,2 22,4 20,7 19 10 31 17 W 1019,2 70 0 0,0
11.08.2018 22:00:00 15,1 9,7 14,0 20,4 22,7 20,7 22 12 42 23 WSW 1019,2 70 0 0,0
11.08.2018 21:00:00 17,3 8,2 16,0 21,6 22,9 20,8 18 10 38 21 W 1018,5 70 5 0,0
11.08.2018 20:00:00 18,9 6,8 18,4 23,2 23,0 20,8 29 16 52 28 W 1018,0 70 55 0,0
11.08.2018 19:00:00 20,1 7,1 20,7 24,6 23,1 20,8 29 16 45 25 W 1017,8 70 18 0,0
11.08.2018 18:00:00 21,3 6,4 23,8 26,0 23,0 20,8 34 18 50 27 WSW 1017,5 48 46 0,0
11.08.2018 17:00:00 21,4 5,7 24,1 27,0 22,8 20,8 35 19 51 28 W 1017,4 70 38 0,0
11.08.2018 16:00:00 21,6 7,6 26,0 27,7 22,5 20,8 31 17 51 28 SW 1017,7 41 44 0,0
11.08.2018 15:00:00 20,8 7,8 26,0 27,5 22,2 20,8 29 16 49 27 SW 1018,0 32 55 0,0
11.08.2018 14:00:00 20,1 7,4 23,9 25,4 21,9 20,9 36 20 55 30 WSW 1018,5 55 23 0,0
11.08.2018 13:00:00 20,5 8,8 23,9 24,6 21,7 20,9 20 11 38 21 W 1018,1 70 8 0,0
11.08.2018 12:00:00 20,4 8,4 22,9 24,7 21,3 20,9 27 15 41 22 W 1018,4 53 7 0,0
11.08.2018 11:00:00 21,6 8,4 27,2 23,9 21,0 20,9 24 13 35 19 W 1018,2 29 46 0,0
11.08.2018 10:00:00 20,8 8,7 22,7 21,7 20,9 20,9 22 12 34 19 SW 1018,1 70 26 0,0
11.08.2018 09:00:00 18,6 10,7 19,6 19,0 21,0 20,9 14 8 22 12 S 1018,2 70 1 0,0
11.08.2018 08:00:00 16,0 11,8 16,2 17,9 21,1 20,9 15 8 23 12 SSE 1018,5 49 0 0,0
11.08.2018 07:00:00 15,4 11,4 15,2 17,5 21,3 20,9 17 9 29 15 SSE 1018,7 62 15 0,0
11.08.2018 06:00:00 15,8 10,8 14,7 17,5 21,5 20,9 19 11 25 14 SSE 1019,0 70 0 0,0
11.08.2018 05:00:00 15,7 9,7 14,2 17,6 21,7 20,9 16 9 23 12 SSE 1019,5 68 0 0,0
11.08.2018 04:00:00 16,4 9,5 15,6 17,8 22,0 20,9 16 8 22 12 SSE 1020,2 70 0 0,0
11.08.2018 03:00:00 15,3 8,9 14,2 17,8 22,3 20,9 13 7 18 10 SE 1020,7 70 0 0,0
11.08.2018 02:00:00 15,3 8,8 13,6 18,2 22,6 20,9 12 7 14 8 SSE 1021,3 70 0 0,0
11.08.2018 01:00:00 16,0 8,4 13,7 18,7 22,9 20,9 11 6 14 7 SSE 1021,6 70 0 0,0
11.08.2018 00:00:00 16,3 8,4 13,7 19,4 23,3 20,9 11 6 12 7 SSE 1021,7 70 0 0,0
10.08.2018 23:00:00 16,5 9,4 14,2 20,3 23,6 20,9 10 5 11 6 SSE 1021,9 70 0 0,0
10.08.2018 22:00:00 17,0 9,3 13,8 21,5 24,0 20,9 8 4 10 5 SSE 1021,8 70 0 0,0
10.08.2018 21:00:00 19,2 9,1 16,1 23,1 24,2 20,9 6 3 18 10 SSW 1021,5 70 32 0,0
10.08.2018 20:00:00 21,3 8,3 21,0 25,1 24,3 20,9 13 7 27 15 W 1021,2 70 55 0,0
10.08.2018 19:00:00 22,8 7,7 24,6 26,7 24,3 20,9 16 9 26 14 W 1021,0 70 39 0,0
10.08.2018 18:00:00 22,6 8,0 24,0 28,1 24,1 20,9 17 9 34 19 W 1021,1 70 45 0,0

tt = temperature
td = dewpoint
tt 5cm = temperature 5cm
tt -5cm = temperature -5cm
tt -20cm = temperature -20cm
tt -100cm = temperature -100cm
ff = wind speed
fx = gusts
dd = wind direction
ppp = reduced air pressure
vv = visibility
sd = sunshine duration
rr = precipitation

Next stations